Torna al catalogo

CroCube

CROCUBE

AttivoRadioamatoreVLEO
NORAD 62394·PAYLOAD·🇭🇷 Croatia

Lanciato Dec 21, 2024 da Vandenberg Space Force Base

Loading…

Prossimi Passaggi (prossime 24 ore)

TLE

AggiornatoSource: AMSAT

Epoca: Sep 13, 2026, 15:17 UTC

1 62394U 24247T   26256.63683198  .00042932  00000-0  62992-3 0  9999
2 62394  44.9680 118.6820 0009410 202.9408 157.1066 15.54832267 97085

Traccia CroCube in tempo reale con AllMySat

Download on the App Store